Location: Casco Millpond
(44.5581°N, 87.6111°W)
Time: 22:45:04
(UTC+00:00)

MOS 1 Rocket - Pass Details

Date: 16 January 2026
Orbit: 608 x 815 km, 97.4° (Epoch: 11 February)

Event Time Altitude Azimuth Distance (km) Brightness Sun altitude
Rises 23:19:54 0° 165° (SSE) 3,310 6.9 -7.6°
Reaches altitude 10° 23:22:16 10° 165° (SSE) 2,369 6.1 -8.0°
Maximum altitude 23:27:32 87° 78° (ENE) 786 3.5 -8.9°
Drops below altitude 10° 23:32:37 10° 348° (NNW) 2,282 5.9 -9.7°
Sets 23:34:52 0° 349° (NNW) 3,180 6.6 -10.1°
